TimeEST,TemperatureF,Dew PointF,Humidity,Sea Level PressureIn,VisibilityMPH,Wind Direction,Wind SpeedMPH,Gust SpeedMPH,PrecipitationIn,Events,Conditions,WindDirDegrees,DateUTC
12:07 AM,17.6,10.4,73,29.92,2.0,NNW,9.2,20.7,0.00,Snow,Light Snow,330,1998-01-14 05:07:00
12:23 AM,17.6,8.6,68,29.94,5.0,NW,16.1,21.9,0.00,Snow,Light Snow,320,1998-01-14 05:23:00
12:52 AM,15.1,5.0,64,29.95,4.0,NW,15.0,25.3,0.00,,Haze,320,1998-01-14 05:52:00
1:52 AM,12.9,3.0,65,30.00,9.0,West,11.5,25.3,0.00,,Overcast,280,1998-01-14 06:52:00
2:52 AM,10.9,1.9,67,30.02,5.0,WNW,20.7,27.6,0.00,,Haze,290,1998-01-14 07:52:00
3:22 AM,10.4,3.2,73,30.06,1.8,WNW,13.8,24.2,0.00,Snow,Light Snow,300,1998-01-14 08:22:00
3:30 AM,10.4,5.0,79,30.06,1.2,NW,16.1,21.9,0.00,Snow,Light Snow,310,1998-01-14 08:30:00
3:34 AM,10.4,-2.2,57,30.06,2.0,NW,12.7,21.9,0.00,Snow,Light Snow,320,1998-01-14 08:34:00
3:42 AM,10.4,-9.4,41,30.07,7.0,NNW,15.0,31.1,0.00,,Mostly Cloudy,330,1998-01-14 08:42:00
3:52 AM,9.0,-2.0,61,30.14,4.0,NW,13.8,34.5,0.00,,Mostly Cloudy,310,1998-01-14 08:52:00
4:52 AM,7.0,-6.0,55,30.16,10.0,NW,17.3,24.2,0.00,,Partly Cloudy,320,1998-01-14 09:52:00
5:52 AM,5.0,-4.0,66,30.21,8.0,WNW,16.1,26.5,N/A,,Mostly Cloudy,290,1998-01-14 10:52:00
6:29 AM,5.0,-2.2,72,30.16,4.0,WNW,15.0,20.7,N/A,,Haze,300,1998-01-14 11:29:00
6:52 AM,5.0,-2.9,70,30.26,3.0,NW,11.5,26.5,N/A,,Haze,310,1998-01-14 11:52:00
7:40 AM,3.2,-5.8,66,30.18,2.0,NW,15.0,28.8,0.00,,Overcast,310,1998-01-14 12:40:00
7:52 AM,3.9,-6.0,64,30.27,8.0,WNW,15.0,27.6,0.00,,Overcast,300,1998-01-14 12:52:00
8:29 AM,3.2,-7.6,61,30.23,10.0,West,11.5,21.9,0.00,,Scattered Clouds,280,1998-01-14 13:29:00
8:52 AM,3.9,-7.1,60,30.32,10.0,WNW,12.7,18.4,0.00,,Scattered Clouds,290,1998-01-14 13:52:00
9:52 AM,3.9,-9.0,55,30.32,10.0,West,11.5,21.9,N/A,,Clear,280,1998-01-14 14:52:00
10:52 AM,5.0,-7.1,58,30.34,10.0,WNW,13.8,20.7,N/A,,Partly Cloudy,290,1998-01-14 15:52:00
11:52 AM,5.0,-7.1,58,30.34,10.0,WNW,15.0,23.0,N/A,,Clear,290,1998-01-14 16:52:00
12:52 PM,5.0,-8.0,55,30.35,10.0,West,12.7,20.7,N/A,,Clear,280,1998-01-14 17:52:00
1:52 PM,6.1,-6.0,58,30.36,10.0,NW,8.1,17.3,N/A,,Clear,310,1998-01-14 18:52:00
2:52 PM,6.1,-7.1,55,30.38,10.0,WNW,11.5,17.3,N/A,,Clear,300,1998-01-14 19:52:00
3:52 PM,3.9,-7.1,60,30.40,10.0,West,6.9,-,N/A,,Clear,280,1998-01-14 20:52:00
4:52 PM,3.0,-8.0,60,30.42,10.0,NNW,8.1,-,N/A,,Clear,330,1998-01-14 21:52:00
5:52 PM,1.9,-8.0,63,30.44,10.0,NNW,3.5,-,N/A,,Clear,340,1998-01-14 22:52:00
6:52 PM,1.9,-8.0,63,30.46,10.0,WNW,4.6,-,N/A,,Clear,290,1998-01-14 23:52:00
7:52 PM,1.0,-8.0,66,30.46,10.0,Calm,Calm,-,N/A,,Clear,0,1998-01-15 00:52:00
8:52 PM,-2.9,-9.0,75,30.47,10.0,Calm,Calm,-,N/A,,Clear,0,1998-01-15 01:52:00
9:52 PM,-0.0,-8.0,69,30.48,10.0,NNW,3.5,-,N/A,,Clear,330,1998-01-15 02:52:00
10:52 PM,-4.0,-11.0,72,30.49,10.0,Calm,Calm,-,N/A,,Clear,0,1998-01-15 03:52:00
11:52 PM,-2.0,-11.0,66,30.50,10.0,Calm,Calm,-,N/A,,Clear,0,1998-01-15 04:52:00